Nairobi Wilson, Kenya

4:53 AM EAT on May 28, 2017 (GMT +0300)
Nairobi Wilson

Weather History for HKNW - October, 2012

Change the Weather History Date:

Saturday, October 27, 2012

  Actual Average Record
Temperature  
Mean Temperature 72 °F -  
Max Temperature 82 °F 74 °F 82 °F (2012)
Min Temperature 62 °F 60 °F 59 °F (2005)
Cooling Degree Days 7    
Growing Degree Days 22 (Base 50)    
Moisture  
Dew Point 55 °F    
Average Humidity 60    
Maximum Humidity 83    
Minimum Humidity 28    
Precipitation  
Precipitation 0.00 in - - ()
Sea Level Pressure  
Sea Level Pressure 30.08 in    
Wind  
Wind Speed 6 mph ()    
Max Wind Speed 14 mph    
Max Gust Speed -    
Visibility 6.2 miles    
Events Thunderstorm    
Averages and records for this station are not official NWS values.
T = Trace of Precipitation, MM = Missing Value Source: Averaged Metar Reports

Daily Weather History Graph

Daily Weather History Graph

Search for Another Location

Airport or City:

Trip Planner

Search our weather history database for the weather conditions in past years. The results will help you decide how hot, cold, wet, or windy it might be!

Date:

Astronomy

Oct. 27, 2012 Rise Set
Actual Time 6:11 AM EAT 6:21 PM EAT
Civil Twilight 5:50 AM EAT 6:42 PM EAT
Nautical Twilight 5:26 AM EAT 7:07 PM EAT
Astronomical Twilight 5:01 AM EAT 7:31 PM EAT
Moon 4:36 PM EAT (10/27) 4:12 AM EAT (10/27)
Length of Visible Light 12h 51m
Length of Day
12h 09m
Waxing Gibbous, 94% of the Moon is Illuminated
Oct 27
Waxing Gibbous
Oct 29
Full
Nov 7
Last Quarter
Nov 14
New
Nov 20
First Quarter

Hourly Weather History & Observations

Time (EAT) Temp. Heat Index Dew Point Humidity Pressure Visibility Wind Dir Wind Speed Gust Speed Precip Events Conditions
12:00 AM 68.0 °F - 51.8 °F 56% 30.12 in 6.2 mi ENE 11.5 mph - N/A   Mostly Cloudy
1:00 AM 66.2 °F - 55.4 °F 68% 30.12 in 6.2 mi ENE 8.1 mph - N/A   Mostly Cloudy
2:00 AM 64.4 °F - 57.2 °F 77% 30.09 in 6.2 mi NE 6.9 mph - N/A   Partly Cloudy
3:00 AM 62.6 °F - 57.2 °F 82% 30.09 in 6.2 mi ENE 11.5 mph - N/A   Mostly Cloudy
4:00 AM 62.6 °F - 57.2 °F 82% 30.09 in 6.2 mi NNE 5.8 mph - N/A   Mostly Cloudy
5:00 AM 62.6 °F - 57.2 °F 82% 30.09 in 6.2 mi Calm Calm - N/A   Mostly Cloudy
6:00 AM 62.6 °F - 57.2 °F 82% 30.12 in 6.2 mi Calm Calm - N/A   Mostly Cloudy
7:00 AM 62.6 °F - 55.4 °F 77% 30.12 in 6.2 mi NNE 5.8 mph - N/A   Partly Cloudy
8:00 AM 64.4 °F - 57.2 °F 77% 30.12 in - Calm Calm - N/A   Clear
9:00 AM 71.6 °F - 57.2 °F 60% 30.15 in 6.2 mi Calm Calm - N/A   Scattered Clouds
10:00 AM 75.2 °F - 57.2 °F 53% 30.15 in 6.2 mi ESE 6.9 mph - N/A   Scattered Clouds
11:00 AM 75.2 °F - 55.4 °F 50% 30.12 in 6.2 mi East 9.2 mph - N/A   Scattered Clouds
12:00 PM 78.8 °F - 55.4 °F 44% 30.09 in 6.2 mi East 3.5 mph - N/A   Scattered Clouds
1:00 PM 80.6 °F 80.5 °F 55.4 °F 42% 30.06 in 6.2 mi ESE 8.1 mph - N/A   Scattered Clouds
2:00 PM 82.4 °F - 51.8 °F 35% 30.04 in 6.2 mi SSE 13.8 mph - N/A   Scattered Clouds
3:00 PM 82.4 °F - 50.0 °F 32% 30.01 in 6.2 mi SSE 6.9 mph - N/A   Scattered Clouds
4:00 PM 82.4 °F - 46.4 °F 28% 29.98 in 6.2 mi East 10.4 mph - N/A Thunderstorm Thunderstorm
5:00 PM 78.8 °F - 55.4 °F 44% 30.01 in - North - - N/A   Mostly Cloudy
6:00 PM 73.4 °F - 53.6 °F 50% 30.01 in 6.2 mi ENE 11.5 mph - N/A   Mostly Cloudy
8:00 PM 66.2 °F - 60.8 °F 83% 30.09 in 6.2 mi NE 9.2 mph - N/A   Mostly Cloudy